Regional Weather Roundup
Issued by NWS

Home | Current Version | Previous Version | Text Only | Print | Product List | Glossary Off
Versions: 1 2 3 4 5 6 7 8 9 10 11 12 13 14 15 16 17 18 19 20 21 22 23 24 25 26 27 28 29 30 31 32 33 34 35 36 37 38 39 40 41 42 43 44 45 46 47 48 49 50

000
ASUS43 KFSD 232002
RWRSD

WEATHER ROUNDUP FOR SOUTH DAKOTA
NATIONAL WEATHER SERVICE SIOUX FALLS SD
300 PM CDT SAT MAY 23 2015

NOTE: "FAIR" INDICATES FEW OR NO CLOUDS BELOW 12,000 FEET WITH NO
SIGNIFICANT WEATHER AND/OR OBSTRUCTIONS TO VISIBILITY.


SDZ001>005-009-010-012>017-232100-
NORTHWEST AND NORTH CENTRAL SOUTH DAKOTA

CITY           SKY/WX    TMP DP  RH WIND       PRES   REMARKS
FAITH            N/A     57  47  69 SE16      30.08F
MOBRIDGE       CLOUDY    61  51  70 SE14      30.11R
$$

SDZ012>016-024>037-041>051-057-063-072>074-232100-
SOUTHWEST AND SOUTH CENTRAL SOUTH DAKOTA

CITY           SKY/WX    TMP DP  RH WIND       PRES   REMARKS
RAPID CTY ARPT CLOUDY    55  48  77 E12       30.05S
PIERRE         CLOUDY    56  54  93 SE10      30.08F
CUSTER         CLOUDY    48  44  86 SE9       30.06F
ELLSWORTH AFB  CLOUDY    55  49  80 E12       30.04
PHILIP         CLOUDY    59  51  75 E12       30.06F
PINE RIDGE     CLOUDY    61  50  67 E14       30.01F
WINNER         CLOUDY    60  53  77 SE10      30.08F
$$

SDZ004>011-016>023-039-040-232100-
NORTHEAST SOUTH DAKOTA

CITY           SKY/WX    TMP DP  RH WIND       PRES   REMARKS
ABERDEEN       CLOUDY    63  48  58 S10       30.15S
WATERTOWN      CLOUDY    65  47  52 SE15      30.15F
BROOKINGS      CLOUDY    63  48  59 S7        30.16F
$$

SDZ017-020-022-023-036>040-048>070-232100-
SOUTHEAST SOUTH DAKOTA

CITY           SKY/WX    TMP DP  RH WIND       PRES   REMARKS
SIOUX FALLS    CLOUDY    65  51  60 S12G20    30.13F
HURON          CLOUDY    67  51  56 S12G21    30.12F
CHAMBERLAIN    CLOUDY    60  55  83 SE12      30.09F
MITCHELL       CLOUDY    64  53  67 SE13      30.13F
YANKTON        CLOUDY    63  54  72 SE10      30.11F
$$

ABBREVIATIONS USED IN REMARKS
   TC - TEMPERATURE IN CELSIUS
  WCI - WIND CHILL INDEX
   HX - HEAT INDEX
  VSB - VISIBILITY



USA.gov is the U.S. government's official web portal to all federal, state and local government web resources and services.